When you browse on this site, cookies collect data to enhance your experience and personalize the content and advertising you see.
Visit our Privacy Policy to learn more. By continuing to use the site, you agree to this use of cookies and data.
  • In France
  • List of Countries
  • For 7 days
  • Water Temperature
  • Satellite Maps
  • Weather Map
  • Weather Widgets
  • user-avatar
    Login

    Hourly Weather Bovec

    Today, 16 June, Sunday

    Time Temperature Precipitation Wind Pressure Humidity
    00:00 +18°C° 0 mm 1 mps 691 mmHg 76%
    01:00 +18°C° 0 mm 1 mps 691 mmHg 78%
    02:00 +16°C° 0 mm 1 mps 691 mmHg 80%
    03:00 +16°C° 0 mm 1 mps 691 mmHg 81%
    04:00 +15°C° 0 mm 1 mps 691 mmHg 83%
    05:00 +18°C° 0 mm 1 mps 691 mmHg 78%
    06:00 +20°C° 0 mm 1 mps 692 mmHg 74%
    07:00 +20°C° 0 mm 0 mps 693 mmHg 69%
    08:00 +23°C° 0 mm 1 mps 693 mmHg 62%
    09:00 +25°C° 0 mm 1 mps 694 mmHg 55%
    10:00 +27°C° 0 mm 1 mps 694 mmHg 49%
    11:00 +28°C° 0.1 mm 1 mps 694 mmHg 46%
    12:00 +28°C° 0.1 mm 1 mps 694 mmHg 44%
    13:00 +29°C° 0.1 mm 2 mps 694 mmHg 42%
    14:00 +28°C° 0 mm 2 mps 694 mmHg 43%
    15:00 +28°C° 0 mm 1 mps 694 mmHg 44%
    16:00 +28°C° 0 mm 1 mps 693 mmHg 46%
    17:00 +25°C° 0.3 mm 1 mps 693 mmHg 58%
    18:00 +23°C° 0.3 mm 1 mps 693 mmHg 71%
    19:00 +21°C° 0.3 mm 1 mps 693 mmHg 84%
    20:00 +20°C° 0.2 mm 1 mps 693 mmHg 86%
    21:00 +17°C° 0.2 mm 2 mps 693 mmHg 88%
    22:00 +16°C° 0.2 mm 2 mps 693 mmHg 90%
    23:00 +15°C° 0 mm 2 mps 693 mmHg 90%

    Tomorrow, 17 June, Monday

    Time Temperature Precipitation Wind Pressure Humidity
    00:00 +15°C° 0 mm 2 mps 693 mmHg 90%
    01:00 +14°C° 0 mm 2 mps 693 mmHg 91%
    02:00 +14°C° 0 mm 2 mps 693 mmHg 90%
    03:00 +14°C° 0 mm 2 mps 693 mmHg 90%
    04:00 +14°C° 0 mm 2 mps 693 mmHg 89%
    05:00 +15°C° 0 mm 2 mps 693 mmHg 86%
    06:00 +16°C° 0 mm 2 mps 694 mmHg 83%
    07:00 +19°C° 0 mm 1 mps 694 mmHg 80%
    08:00 +21°C° 0 mm 1 mps 695 mmHg 70%
    09:00 +23°C° 0 mm 1 mps 695 mmHg 60%
    10:00 +25°C° 0 mm 1 mps 695 mmHg 51%
    11:00 +26°C° 0.2 mm 1 mps 695 mmHg 52%
    12:00 +26°C° 0.2 mm 1 mps 695 mmHg 53%
    13:00 +26°C° 0.2 mm 1 mps 694 mmHg 53%
    14:00 +26°C° 0.6 mm 1 mps 694 mmHg 57%
    15:00 +25°C° 0.6 mm 1 mps 694 mmHg 62%
    16:00 +25°C° 0.6 mm 1 mps 693 mmHg 66%
    17:00 +23°C° 0.3 mm 1 mps 693 mmHg 72%
    18:00 +22°C° 0.3 mm 1 mps 693 mmHg 78%
    19:00 +21°C° 0.3 mm 1 mps 692 mmHg 84%
    20:00 +20°C° 0.2 mm 1 mps 692 mmHg 86%
    21:00 +18°C° 0.2 mm 1 mps 693 mmHg 89%
    22:00 +16°C° 0.2 mm 1 mps 693 mmHg 91%
    23:00 +16°C° 0.1 mm 1 mps 692 mmHg 91%

    Day after tomorrow, 18 June, Tuesday

    Time Temperature Precipitation Wind Pressure Humidity
    00:00 +15°C° 0.1 mm 1 mps 692 mmHg 91%
    01:00 +15°C° 0.1 mm 1 mps 692 mmHg 91%
    02:00 +15°C° 0 mm 1 mps 692 mmHg 91%
    03:00 +15°C° 0 mm 1 mps 692 mmHg 90%
    04:00 +15°C° 0 mm 1 mps 691 mmHg 90%
    05:00 +16°C° 0 mm 1 mps 692 mmHg 87%
    06:00 +18°C° 0 mm 1 mps 692 mmHg 85%
    07:00 +20°C° 0 mm 1 mps 693 mmHg 82%
    08:00 +22°C° 0 mm 1 mps 693 mmHg 74%
    09:00 +23°C° 0 mm 1 mps 693 mmHg 66%
    10:00 +25°C° 0 mm 1 mps 693 mmHg 57%
    11:00 +25°C° 0.8 mm 1 mps 693 mmHg 62%
    12:00 +25°C° 0.8 mm 1 mps 693 mmHg 67%
    13:00 +25°C° 0.8 mm 1 mps 692 mmHg 72%
    14:00 +24°C° 1.1 mm 1 mps 692 mmHg 74%
    15:00 +24°C° 1.1 mm 1 mps 692 mmHg 75%
    16:00 +24°C° 1.1 mm 1 mps 692 mmHg 76%
    17:00 +23°C° 0.4 mm 1 mps 691 mmHg 81%
    18:00 +20°C° 0.4 mm 0 mps 691 mmHg 85%
    19:00 +19°C° 0.4 mm 0 mps 691 mmHg 90%
    20:00 +18°C° 0.1 mm 0 mps 691 mmHg 91%
    21:00 +18°C° 0.1 mm 1 mps 691 mmHg 91%
    22:00 +16°C° 0.1 mm 1 mps 691 mmHg 92%
    23:00 +16°C° 0 mm 1 mps 691 mmHg 91%

    19 June, Wednesday

    Time Temperature Precipitation Wind Pressure Humidity
    00:00 +16°C° 0 mm 1 mps 691 mmHg 91%
    01:00 +15°C° 0 mm 1 mps 691 mmHg 90%
    02:00 +15°C° 0 mm 1 mps 691 mmHg 90%
    03:00 +15°C° 0 mm 1 mps 691 mmHg 90%
    04:00 +15°C° 0 mm 1 mps 691 mmHg 89%
    05:00 +16°C° 0 mm 1 mps 691 mmHg 86%
    06:00 +17°C° 0 mm 0 mps 691 mmHg 83%
    07:00 +19°C° 0 mm 0 mps 692 mmHg 80%
    08:00 +20°C° 0.1 mm 0 mps 692 mmHg 73%
    09:00 +24°C° 0.1 mm 1 mps 692 mmHg 66%
    10:00 +26°C° 0.1 mm 1 mps 692 mmHg 59%
    11:00 +26°C° 0.7 mm 1 mps 692 mmHg 63%
    12:00 +25°C° 0.7 mm 2 mps 692 mmHg 66%
    13:00 +25°C° 0.7 mm 2 mps 691 mmHg 70%
    14:00 +25°C° 0.6 mm 2 mps 691 mmHg 71%
    15:00 +25°C° 0.6 mm 2 mps 691 mmHg 72%
    16:00 +24°C° 0.6 mm 2 mps 691 mmHg 74%
    17:00 +23°C° 0.9 mm 1 mps 691 mmHg 79%
    18:00 +22°C° 0.9 mm 1 mps 691 mmHg 85%
    19:00 +21°C° 0.9 mm 1 mps 691 mmHg 91%
    20:00 +20°C° 0.7 mm 1 mps 691 mmHg 91%
    21:00 +19°C° 0.7 mm 1 mps 691 mmHg 91%
    22:00 +18°C° 0.7 mm 1 mps 691 mmHg 91%
    23:00 +16°C° 0.3 mm 1 mps 691 mmHg 91%

    20 June, Thursday

    Time Temperature Precipitation Wind Pressure Humidity
    00:00 +15°C° 0.3 mm 1 mps 690 mmHg 91%
    01:00 +15°C° 0.3 mm 1 mps 690 mmHg 91%
    02:00 +15°C° 0 mm 1 mps 690 mmHg 90%
    03:00 +14°C° 0 mm 1 mps 690 mmHg 89%
    04:00 +14°C° 0 mm 1 mps 690 mmHg 89%
    05:00 +16°C° 0 mm 1 mps 691 mmHg 86%
    06:00 +17°C° 0 mm 0 mps 691 mmHg 83%
    07:00 +19°C° 0 mm 0 mps 692 mmHg 80%
    08:00 +20°C° 0 mm 0 mps 692 mmHg 71%
    09:00 +24°C° 0 mm 1 mps 692 mmHg 63%
    10:00 +26°C° 0 mm 1 mps 693 mmHg 54%
    11:00 +27°C° 0.1 mm 1 mps 693 mmHg 53%
    12:00 +27°C° 0.1 mm 1 mps 693 mmHg 53%
    13:00 +28°C° 0.1 mm 2 mps 692 mmHg 52%
    14:00 +27°C° 0.4 mm 2 mps 692 mmHg 56%
    15:00 +27°C° 0.4 mm 2 mps 692 mmHg 59%
    16:00 +26°C° 0.4 mm 2 mps 692 mmHg 63%
    17:00 +25°C° 0.5 mm 1 mps 692 mmHg 72%
    18:00 +23°C° 0.5 mm 1 mps 692 mmHg 80%
    19:00 +22°C° 0.5 mm 1 mps 691 mmHg 89%
    20:00 +21°C° 0.1 mm 1 mps 692 mmHg 90%
    21:00 +19°C° 0.1 mm 1 mps 692 mmHg 91%
    22:00 +18°C° 0.1 mm 1 mps 692 mmHg 92%
    23:00 +18°C° 0.1 mm 1 mps 692 mmHg 91%

    21 June, Friday

    Time Temperature Precipitation Wind Pressure Humidity
    00:00 +16°C° 0.1 mm 1 mps 692 mmHg 91%
    01:00 +16°C° 0.1 mm 1 mps 691 mmHg 90%
    02:00 +16°C° 0 mm 1 mps 691 mmHg 90%
    03:00 +16°C° 0 mm 1 mps 691 mmHg 91%
    04:00 +15°C° 0 mm 1 mps 691 mmHg 91%
    05:00 +18°C° 0 mm 1 mps 691 mmHg 88%
    06:00 +17°C° 0 mm 0 mps 692 mmHg 85%
    07:00 +19°C° 0 mm 0 mps 692 mmHg 82%
    08:00 +21°C° 0 mm 0 mps 692 mmHg 73%
    09:00 +25°C° 0 mm 1 mps 693 mmHg 63%
    10:00 +26°C° 0 mm 1 mps 693 mmHg 54%
    11:00 +27°C° 0 mm 2 mps 693 mmHg 51%
    12:00 +27°C° 0 mm 2 mps 693 mmHg 48%
    13:00 +28°C° 0 mm 2 mps 693 mmHg 45%
    14:00 +27°C° 0 mm 2 mps 692 mmHg 48%
    15:00 +27°C° 0 mm 2 mps 692 mmHg 51%
    16:00 +26°C° 0 mm 2 mps 692 mmHg 54%
    17:00 +25°C° 0 mm 2 mps 691 mmHg 64%
    18:00 +23°C° 0 mm 1 mps 691 mmHg 74%
    19:00 +22°C° 0 mm 1 mps 691 mmHg 83%
    20:00 +20°C° 0 mm 1 mps 691 mmHg 85%
    21:00 +19°C° 0 mm 1 mps 691 mmHg 87%
    22:00 +18°C° 0 mm 1 mps 691 mmHg 88%
    23:00 +16°C° 0 mm 1 mps 691 mmHg 87%
    Show more